User: anonymous   Login
Location: Unspecified
(0.0000°N, 0.0000°E)
Time: 06:48:45
(UTC+00:00)
Language:

Oscar 14 - Orbit

View from above orbital plane
View from above orbital plane
View from above satellite
View from above satellite

Ground track
Ground track

The orbit data is extracted from the following two-line orbital elements,

1 20437U 90005B   17087.83904756 +.00000015 +00000-0 +21856-4 0  9997
2 20437 098.6531 031.8623 0011637 057.1648 359.7605 14.32249811419477
Epoch (UTC): 28 March 2017 20:08:13
Eccentricity: 0.0011637
inclination: 98.6531°
perigee height: 776 km
apogee height: 792 km
right ascension of ascending node: 31.8623°
argument of perigee: 57.1648°
revolutions per day: 14.32249811
mean anomaly at epoch: 359.7605°
orbit number at epoch: 41947

The dashed part of the orbit path shows where the satellite is in the earth's shadow,  

DLR